Alva, OK

4:13 PM CDT on July 24, 2016 (GMT -0500)
Alva Regional

Weather History for KAVK - January, 2013

Change the Weather History Date:

Sunday, January 20, 2013

  Actual Average Record
Temperature  
Mean Temperature 42 °F -  
Max Temperature 55 °F 49 °F 76 °F (1951)
Min Temperature 26 °F 25 °F -2 °F (1962)
Degree Days  
Heating Degree Days 24    
Moisture  
Dew Point 24 °F    
Average Humidity 57    
Maximum Humidity 80    
Minimum Humidity 33    
Precipitation  
Precipitation 0.00 in - - ()
Sea Level Pressure  
Sea Level Pressure 30.23 in    
Wind  
Wind Speed 8 mph (NE)    
Max Wind Speed 22 mph    
Max Gust Speed 31 mph    
Visibility 10 miles    
Events      
Averages and records for this station are not official NWS values.
T = Trace of Precipitation, MM = Missing Value Source: NWS Daily Summary

Daily Weather History Graph

Daily Weather History Graph

Search for Another Location

Airport or City:

Trip Planner

Search our weather history database for the weather conditions in past years. The results will help you decide how hot, cold, wet, or windy it might be!

Date:

Astronomy

Jan. 20, 2013 Rise Set
Actual Time 7:44 AM CST 5:47 PM CST
Civil Twilight 7:16 AM CST 6:15 PM CST
Nautical Twilight 6:44 AM CST 6:47 PM CST
Astronomical Twilight 6:13 AM CST 7:18 PM CST
Moon 12:49 PM CST (1/20) 2:18 AM CST (1/20)
Length of Visible Light 10h 59m
Length of Day
10h 03m
Waxing Gibbous, 66% of the Moon is Illuminated
Jan 20
Waxing Gibbous
Jan 26
Full
Feb 3
Last Quarter
Feb 10
New
Feb 17
First Quarter

Hourly Weather History & Observations

Time (CST) Temp. Windchill Dew Point Humidity Pressure Visibility Wind Dir Wind Speed Gust Speed Precip Events Conditions
12:10 AM 37.4 °F 30.8 °F 23.0 °F 56% 30.24 in 10.0 mi North 9.2 mph - N/A   Clear
12:30 AM 35.6 °F 28.0 °F 23.0 °F 60% 30.24 in 10.0 mi North 10.4 mph - N/A   Clear
12:50 AM 32.0 °F 24.8 °F 23.0 °F 69% 30.24 in 10.0 mi North 8.1 mph - N/A   Clear
1:10 AM 28.4 °F 22.2 °F 23.0 °F 80% 30.24 in 10.0 mi WNW 5.8 mph - N/A   Clear
1:30 AM 30.2 °F 23.4 °F 23.0 °F 75% 30.25 in 10.0 mi WSW 6.9 mph - N/A   Clear
1:50 AM 32.0 °F 25.6 °F 23.0 °F 69% 30.25 in 10.0 mi NW 6.9 mph - N/A   Clear
2:10 AM 32.0 °F 27.5 °F 23.0 °F 69% 30.26 in 10.0 mi WNW 4.6 mph - N/A   Clear
2:30 AM 37.4 °F 34.9 °F 23.0 °F 56% 30.26 in 10.0 mi NW 3.5 mph - N/A   Clear
2:50 AM 35.6 °F 32.8 °F 23.0 °F 60% 30.26 in 10.0 mi NW 3.5 mph - N/A   Clear
3:10 AM 35.6 °F 32.8 °F 23.0 °F 60% 30.25 in 10.0 mi NNW 3.5 mph - N/A   Clear
3:30 AM 37.4 °F - 23.0 °F 56% 30.25 in 10.0 mi Calm Calm - N/A   Clear
3:50 AM 37.4 °F 34.9 °F 23.0 °F 56% 30.25 in 10.0 mi NNW 3.5 mph - N/A   Clear
4:10 AM 32.0 °F 28.7 °F 23.0 °F 69% 30.24 in 10.0 mi NW 3.5 mph - N/A   Clear
4:30 AM 30.2 °F - 23.0 °F 75% 30.24 in 10.0 mi Calm Calm - N/A   Clear
4:50 AM 28.4 °F 23.3 °F 23.0 °F 80% 30.24 in 10.0 mi NW 4.6 mph - N/A   Clear
5:10 AM 28.4 °F 22.2 °F 23.0 °F 80% 30.24 in 10.0 mi North 5.8 mph - N/A   Clear
5:30 AM 30.2 °F 23.4 °F 23.0 °F 75% 30.24 in 10.0 mi North 6.9 mph - N/A   Clear
5:50 AM 32.0 °F 26.4 °F 23.0 °F 69% 30.24 in 10.0 mi NNE 5.8 mph - N/A   Clear
6:10 AM 32.0 °F 26.4 °F 23.0 °F 69% 30.24 in 10.0 mi NNE 5.8 mph - N/A   Clear
6:30 AM 30.2 °F 24.3 °F 23.0 °F 75% 30.24 in 10.0 mi NNE 5.8 mph - N/A   Clear
6:50 AM 30.2 °F 24.3 °F 23.0 °F 75% 30.24 in 10.0 mi NE 5.8 mph - N/A   Clear
7:10 AM 30.2 °F 24.3 °F 23.0 °F 75% 30.24 in 10.0 mi NE 5.8 mph - N/A   Clear
7:30 AM 30.2 °F 23.4 °F 23.0 °F 75% 30.23 in 10.0 mi NE 6.9 mph - N/A   Clear
7:50 AM 28.4 °F 21.2 °F 23.0 °F 80% 30.23 in 10.0 mi NNE 6.9 mph - N/A   Clear
8:10 AM 28.4 °F 21.2 °F 23.0 °F 80% 30.24 in 10.0 mi NNE 6.9 mph - N/A   Clear
8:30 AM 32.0 °F 26.4 °F 24.8 °F 75% 30.24 in 10.0 mi NNE 5.8 mph - N/A   Clear
8:50 AM 32.0 °F 25.6 °F 24.8 °F 75% 30.24 in 10.0 mi NE 6.9 mph - N/A   Clear
9:10 AM 33.8 °F 28.6 °F 24.8 °F 70% 30.24 in 10.0 mi ENE 5.8 mph - N/A   Clear
9:30 AM 35.6 °F 30.7 °F 26.6 °F 70% 30.23 in 10.0 mi East 5.8 mph - N/A   Clear
9:50 AM 39.2 °F 33.6 °F 26.6 °F 61% 30.24 in 10.0 mi SE 8.1 mph - N/A   Clear
10:10 AM 41.0 °F 34.7 °F 28.4 °F 61% 30.24 in 10.0 mi SE 10.4 mph - N/A   Clear
10:30 AM 42.8 °F 35.8 °F 28.4 °F 57% 30.24 in 10.0 mi ESE 13.8 mph - N/A   Clear
10:50 AM 42.8 °F 36.6 °F 26.6 °F 53% 30.24 in 10.0 mi ESE 11.5 mph - N/A   Clear
11:10 AM 42.8 °F 38.0 °F 26.6 °F 53% 30.24 in 10.0 mi SE 8.1 mph - N/A   Clear
11:30 AM 44.6 °F 40.2 °F 28.4 °F 53% 30.23 in 10.0 mi SE 8.1 mph - N/A   Clear
11:50 AM 46.4 °F 43.5 °F 28.4 °F 50% 30.22 in 10.0 mi SE 5.8 mph - N/A   Clear
12:10 PM 46.4 °F 42.9 °F 28.4 °F 50% 30.21 in 10.0 mi ESE 6.9 mph - N/A   Clear
12:30 PM 48.2 °F - 28.4 °F 46% 30.19 in 10.0 mi ESE 9.2 mph - N/A   Clear
12:50 PM 48.2 °F - 28.4 °F 46% 30.18 in 10.0 mi SE 5.8 mph - N/A   Clear
1:10 PM 50.0 °F - 28.4 °F 43% 30.17 in 10.0 mi East 4.6 mph - N/A   Clear
1:30 PM 51.8 °F - 28.4 °F 41% 30.15 in 10.0 mi ESE 5.8 mph - N/A   Clear
1:50 PM 53.6 °F - 26.6 °F 35% 30.14 in 10.0 mi SSE 9.2 mph - N/A   Clear
2:10 PM 53.6 °F - 26.6 °F 35% 30.14 in 10.0 mi SSE 4.6 mph - N/A   Clear
2:30 PM 55.4 °F - 26.6 °F 33% 30.13 in 10.0 mi ESE 8.1 mph - N/A   Clear
2:50 PM 55.4 °F - 26.6 °F 33% 30.13 in 10.0 mi East 5.8 mph - N/A   Clear
3:10 PM 55.4 °F - 26.6 °F 33% 30.13 in 10.0 mi East 5.8 mph - N/A   Clear
3:30 PM 55.4 °F - 28.4 °F 36% 30.13 in 10.0 mi NNE 8.1 mph - N/A   Clear
3:50 PM 55.4 °F - 28.4 °F 36% 30.15 in 10.0 mi NNE 9.2 mph - N/A   Clear
4:10 PM 53.6 °F - 28.4 °F 38% 30.15 in 10.0 mi NE 10.4 mph - N/A   Clear
4:30 PM 53.6 °F - 28.4 °F 38% 30.16 in 10.0 mi NNE 11.5 mph - N/A   Clear
4:50 PM 51.8 °F - 28.4 °F 41% 30.17 in 10.0 mi NNE 11.5 mph - N/A   Clear
5:10 PM 50.0 °F - 28.4 °F 43% 30.17 in 10.0 mi NNE 11.5 mph - N/A   Clear
5:30 PM 50.0 °F - 28.4 °F 43% 30.17 in 10.0 mi NNE 9.2 mph - N/A   Clear
5:50 PM 46.4 °F 42.9 °F 26.6 °F 46% 30.18 in 10.0 mi NNE 6.9 mph - N/A   Clear
6:10 PM 46.4 °F 41.1 °F 26.6 °F 46% 30.18 in 10.0 mi NE 11.5 mph - N/A   Clear
6:30 PM 44.6 °F 39.7 °F 28.4 °F 53% 30.19 in 10.0 mi NE 9.2 mph - N/A   Clear
6:50 PM 42.8 °F 38.0 °F 28.4 °F 57% 30.20 in 10.0 mi NE 8.1 mph - N/A   Scattered Clouds
7:10 PM 41.0 °F 34.7 °F 26.6 °F 57% 30.22 in 10.0 mi NE 10.4 mph - N/A   Partly Cloudy
7:30 PM 42.8 °F 36.6 °F 28.4 °F 57% 30.23 in 10.0 mi NE 11.5 mph - N/A   Clear
7:50 PM 41.0 °F 32.8 °F 26.6 °F 57% 30.24 in 10.0 mi NE 16.1 mph 20.7 mph N/A   Clear
8:10 PM 39.2 °F 30.2 °F 24.8 °F 56% 30.26 in 10.0 mi NE 17.3 mph 24.2 mph N/A   Clear
8:30 PM 37.4 °F 27.8 °F 19.4 °F 48% 30.28 in 10.0 mi NNE 17.3 mph 31.1 mph N/A   Clear
8:50 PM 35.6 °F 25.2 °F 17.6 °F 48% 30.30 in 10.0 mi NNE 18.4 mph 26.5 mph N/A   Clear
9:10 PM 32.0 °F 19.8 °F 15.8 °F 51% 30.30 in 10.0 mi NE 20.7 mph 25.3 mph N/A   Clear
9:30 PM 32.0 °F 19.5 °F 14.0 °F 48% 30.31 in 10.0 mi NE 21.9 mph 31.1 mph N/A   Clear
9:50 PM 32.0 °F 20.1 °F 14.0 °F 48% 30.32 in 10.0 mi NE 19.6 mph 25.3 mph N/A   Clear
10:10 PM 30.2 °F 18.5 °F 14.0 °F 51% 30.34 in 10.0 mi NNE 17.3 mph 27.6 mph N/A   Clear
10:30 PM 30.2 °F 18.1 °F 14.0 °F 51% 30.34 in 10.0 mi NNE 18.4 mph 27.6 mph N/A   Clear
10:50 PM 28.4 °F 16.6 °F 14.0 °F 55% 30.35 in 10.0 mi NNE 16.1 mph 27.6 mph N/A   Clear
11:10 PM 28.4 °F 16.2 °F 14.0 °F 55% 30.35 in 10.0 mi NNE 17.3 mph 24.2 mph N/A   Clear
11:30 PM 28.4 °F 18.0 °F 14.0 °F 55% 30.36 in 10.0 mi NNE 12.7 mph 20.7 mph N/A   Partly Cloudy
11:50 PM 26.6 °F 14.7 °F 14.0 °F 59% 30.37 in 10.0 mi NNE 15.0 mph - N/A   Partly Cloudy